Location: Waco, TX
(31.5480°N, 97.1670°W)
Time: 01:21:38
(UTC-06:00)

ISS - Pass Details

Date: 30 January 2021
Orbit: 417 x 422 km, 51.6° (Epoch: 09 March)

Event Time Altitude Azimuth Distance (km) Brightness Sun altitude
Rises 22:54:01 0° 293° (WNW) 2,368 - -61.7°
Reaches altitude 10° 22:56:52 10° 267° (W) 1,499 - -62.3°
Maximum altitude 22:58:42 14° 234° (SW) 1,278 - -62.6°
Drops below altitude 10° 23:00:31 10° 201° (SSW) 1,494 - -63.0°
Sets 23:03:22 0° 174° (S) 2,352 - -63.5°
